﻿測定場所 (Monitoring sites),日付 (Measurement date),時間 (Measurement time),線量率 最大値 (max) μGy/h,線量率 最小値 (min) μGy/h,線量率 平均値 (average) μGy/h,
江戸川 (Edogawa),2013-04-07,23:01～24:00,0.0967,0.0859,0.0911,
江戸川 (Edogawa),2013-04-07,22:01～23:00,0.0963,0.0854,0.0911,
江戸川 (Edogawa),2013-04-07,21:01～22:00,0.0994,0.0872,0.0916,
江戸川 (Edogawa),2013-04-07,20:01～21:00,0.0971,0.0850,0.0910,
江戸川 (Edogawa),2013-04-07,19:01～20:00,0.0965,0.0861,0.0913,
江戸川 (Edogawa),2013-04-07,18:01～19:00,0.0973,0.0852,0.0914,
江戸川 (Edogawa),2013-04-07,17:01～18:00,0.0997,0.0871,0.0919,
江戸川 (Edogawa),2013-04-07,16:01～17:00,0.0973,0.0861,0.0916,
江戸川 (Edogawa),2013-04-07,15:01～16:00,0.0976,0.0843,0.0914,
江戸川 (Edogawa),2013-04-07,14:01～15:00,0.0987,0.0872,0.0924,
江戸川 (Edogawa),2013-04-07,13:01～14:00,0.0960,0.0844,0.0907,
江戸川 (Edogawa),2013-04-07,12:01～13:00,0.0957,0.0863,0.0920,
江戸川 (Edogawa),2013-04-07,11:01～12:00,0.0989,0.0865,0.0921,
江戸川 (Edogawa),2013-04-07,10:01～11:00,0.0963,0.0863,0.0916,
江戸川 (Edogawa),2013-04-07,09:01～10:00,0.0976,0.0864,0.0916,
江戸川 (Edogawa),2013-04-07,08:01～09:00,0.0989,0.0869,0.0925,
江戸川 (Edogawa),2013-04-07,07:01～08:00,0.0984,0.0852,0.0915,
江戸川 (Edogawa),2013-04-07,06:01～07:00,0.0950,0.0853,0.0901,
江戸川 (Edogawa),2013-04-07,05:01～06:00,0.0959,0.0838,0.0894,
江戸川 (Edogawa),2013-04-07,04:01～05:00,0.0955,0.0846,0.0898,
江戸川 (Edogawa),2013-04-07,03:01～04:00,0.0975,0.0822,0.0890,
江戸川 (Edogawa),2013-04-07,02:01～03:00,0.100,0.0865,0.0921,
江戸川 (Edogawa),2013-04-07,01:01～02:00,0.105,0.0920,0.0977,
江戸川 (Edogawa),2013-04-07,00:01～01:00,0.102,0.0859,0.0936,
江戸川 (Edogawa),2013-04-06,23:01～24:00,0.102,0.0904,0.0971,
江戸川 (Edogawa),2013-04-06,22:01～23:00,0.106,0.0798,0.0925,
江戸川 (Edogawa),2013-04-06,21:01～22:00,0.0963,0.0831,0.0882,
江戸川 (Edogawa),2013-04-06,20:01～21:00,0.0977,0.0844,0.0905,
江戸川 (Edogawa),2013-04-06,19:01～20:00,0.102,0.0873,0.0942,
江戸川 (Edogawa),2013-04-06,18:01～19:00,0.105,0.0942,0.0981,
江戸川 (Edogawa),2013-04-06,17:01～18:00,0.104,0.0926,0.0983,
江戸川 (Edogawa),2013-04-06,16:01～17:00,0.104,0.0910,0.0969,
江戸川 (Edogawa),2013-04-06,15:01～16:00,0.0992,0.0896,0.0947,
江戸川 (Edogawa),2013-04-06,14:01～15:00,0.0987,0.0869,0.0927,
江戸川 (Edogawa),2013-04-06,13:01～14:00,0.101,0.0871,0.0927,
江戸川 (Edogawa),2013-04-06,12:01～13:00,0.0967,0.0871,0.0928,
江戸川 (Edogawa),2013-04-06,11:01～12:00,0.100,0.0863,0.0923,
江戸川 (Edogawa),2013-04-06,10:01～11:00,0.0989,0.0878,0.0930,
江戸川 (Edogawa),2013-04-06,09:01～10:00,0.0985,0.0872,0.0924,
江戸川 (Edogawa),2013-04-06,08:01～09:00,0.0995,0.0873,0.0923,
江戸川 (Edogawa),2013-04-06,07:01～08:00,0.0997,0.0874,0.0927,
江戸川 (Edogawa),2013-04-06,06:01～07:00,0.100,0.0861,0.0924,
江戸川 (Edogawa),2013-04-06,05:01～06:00,0.0984,0.0864,0.0925,
江戸川 (Edogawa),2013-04-06,04:01～05:00,0.0987,0.0857,0.0921,
江戸川 (Edogawa),2013-04-06,03:01～04:00,0.0986,0.0865,0.0916,
江戸川 (Edogawa),2013-04-06,02:01～03:00,0.0972,0.0857,0.0919,
江戸川 (Edogawa),2013-04-06,01:01～02:00,0.0995,0.0860,0.0925,
江戸川 (Edogawa),2013-04-06,00:01～01:00,0.0986,0.0858,0.0918,
江戸川 (Edogawa),2013-04-05,23:01～24:00,0.0972,0.0866,0.0922,
江戸川 (Edogawa),2013-04-05,22:01～23:00,0.101,0.0885,0.0924,
江戸川 (Edogawa),2013-04-05,21:01～22:00,0.0966,0.0865,0.0922,
江戸川 (Edogawa),2013-04-05,20:01～21:00,0.100,0.0856,0.0920,
江戸川 (Edogawa),2013-04-05,19:01～20:00,0.0977,0.0861,0.0924,
江戸川 (Edogawa),2013-04-05,18:01～19:00,0.0986,0.0852,0.0922,
江戸川 (Edogawa),2013-04-05,17:01～18:00,0.0987,0.0868,0.0924,
江戸川 (Edogawa),2013-04-05,16:01～17:00,0.100,0.0873,0.0925,
江戸川 (Edogawa),2013-04-05,15:01～16:00,0.0988,0.0877,0.0926,
江戸川 (Edogawa),2013-04-05,14:01～15:00,0.0991,0.0856,0.0920,
江戸川 (Edogawa),2013-04-05,13:01～14:00,0.0968,0.0858,0.0925,
江戸川 (Edogawa),2013-04-05,12:01～13:00,0.0981,0.0851,0.0921,
江戸川 (Edogawa),2013-04-05,11:01～12:00,0.0994,0.0861,0.0919,
江戸川 (Edogawa),2013-04-05,10:01～11:00,0.0977,0.0837,0.0918,
江戸川 (Edogawa),2013-04-05,09:01～10:00,0.0978,0.0882,0.0923,
江戸川 (Edogawa),2013-04-05,08:01～09:00,0.0983,0.0852,0.0922,
江戸川 (Edogawa),2013-04-05,07:01～08:00,0.0967,0.0852,0.0912,
江戸川 (Edogawa),2013-04-05,06:01～07:00,0.0997,0.0841,0.0913,
江戸川 (Edogawa),2013-04-05,05:01～06:00,0.0970,0.0833,0.0913,
江戸川 (Edogawa),2013-04-05,04:01～05:00,0.0968,0.0843,0.0911,
江戸川 (Edogawa),2013-04-05,03:01～04:00,0.0974,0.0857,0.0907,
江戸川 (Edogawa),2013-04-05,02:01～03:00,0.0964,0.0837,0.0907,
江戸川 (Edogawa),2013-04-05,01:01～02:00,0.0978,0.0853,0.0915,
江戸川 (Edogawa),2013-04-05,00:01～01:00,0.0981,0.0868,0.0917,
江戸川 (Edogawa),2013-04-04,23:01～24:00,0.0989,0.0852,0.0911,
江戸川 (Edogawa),2013-04-04,22:01～23:00,0.0967,0.0859,0.0915,
江戸川 (Edogawa),2013-04-04,21:01～22:00,0.0969,0.0846,0.0916,
江戸川 (Edogawa),2013-04-04,20:01～21:00,0.100,0.0849,0.0919,
江戸川 (Edogawa),2013-04-04,19:01～20:00,0.0966,0.0850,0.0913,
江戸川 (Edogawa),2013-04-04,18:01～19:00,0.0966,0.0863,0.0920,
江戸川 (Edogawa),2013-04-04,17:01～18:00,0.0980,0.0869,0.0918,
江戸川 (Edogawa),2013-04-04,16:01～17:00,0.0967,0.0849,0.0916,
江戸川 (Edogawa),2013-04-04,15:01～16:00,0.0986,0.0864,0.0928,
江戸川 (Edogawa),2013-04-04,14:01～15:00,0.0961,0.0869,0.0916,
江戸川 (Edogawa),2013-04-04,13:01～14:00,0.0971,0.0837,0.0914,
江戸川 (Edogawa),2013-04-04,12:01～13:00,0.0986,0.0861,0.0918,
江戸川 (Edogawa),2013-04-04,11:01～12:00,0.0986,0.0847,0.0914,
江戸川 (Edogawa),2013-04-04,10:01～11:00,0.0986,0.0847,0.0911,
江戸川 (Edogawa),2013-04-04,09:01～10:00,0.0982,0.0852,0.0911,
江戸川 (Edogawa),2013-04-04,08:01～09:00,0.0962,0.0841,0.0907,
江戸川 (Edogawa),2013-04-04,07:01～08:00,0.0976,0.0846,0.0903,
江戸川 (Edogawa),2013-04-04,06:01～07:00,0.0942,0.0834,0.0890,
江戸川 (Edogawa),2013-04-04,05:01～06:00,0.0988,0.0838,0.0895,
江戸川 (Edogawa),2013-04-04,04:01～05:00,0.0979,0.0841,0.0891,
江戸川 (Edogawa),2013-04-04,03:01～04:00,0.0967,0.0842,0.0892,
江戸川 (Edogawa),2013-04-04,02:01～03:00,0.0980,0.0842,0.0899,
江戸川 (Edogawa),2013-04-04,01:01～02:00,0.0950,0.0825,0.0891,
江戸川 (Edogawa),2013-04-04,00:01～01:00,0.0963,0.0829,0.0898,
江戸川 (Edogawa),2013-04-03,23:01～24:00,0.0952,0.0835,0.0896,
江戸川 (Edogawa),2013-04-03,22:01～23:00,0.0962,0.0848,0.0904,
江戸川 (Edogawa),2013-04-03,21:01～22:00,0.0937,0.0836,0.0902,
江戸川 (Edogawa),2013-04-03,20:01～21:00,0.0959,0.0850,0.0901,
江戸川 (Edogawa),2013-04-03,19:01～20:00,0.0958,0.0827,0.0902,
江戸川 (Edogawa),2013-04-03,18:01～19:00,0.0974,0.0839,0.0894,
江戸川 (Edogawa),2013-04-03,17:01～18:00,0.0955,0.0836,0.0896,
江戸川 (Edogawa),2013-04-03,16:01～17:00,0.0956,0.0859,0.0907,
江戸川 (Edogawa),2013-04-03,15:01～16:00,0.0993,0.0845,0.0927,
江戸川 (Edogawa),2013-04-03,14:01～15:00,0.106,0.0913,0.0990,
江戸川 (Edogawa),2013-04-03,13:01～14:00,0.106,0.0940,0.101,
江戸川 (Edogawa),2013-04-03,12:01～13:00,0.103,0.0922,0.0978,
江戸川 (Edogawa),2013-04-03,11:01～12:00,0.102,0.0891,0.0945,
江戸川 (Edogawa),2013-04-03,10:01～11:00,0.0967,0.0861,0.0917,
江戸川 (Edogawa),2013-04-03,09:01～10:00,0.100,0.0885,0.0935,
江戸川 (Edogawa),2013-04-03,08:01～09:00,0.100,0.0870,0.0931,
江戸川 (Edogawa),2013-04-03,07:01～08:00,0.101,0.0842,0.0929,
江戸川 (Edogawa),2013-04-03,06:01～07:00,0.100,0.0858,0.0923,
江戸川 (Edogawa),2013-04-03,05:01～06:00,0.100,0.0894,0.0942,
江戸川 (Edogawa),2013-04-03,04:01～05:00,0.101,0.0881,0.0950,
江戸川 (Edogawa),2013-04-03,03:01～04:00,0.101,0.0892,0.0950,
江戸川 (Edogawa),2013-04-03,02:01～03:00,0.0968,0.0853,0.0915,
江戸川 (Edogawa),2013-04-03,01:01～02:00,0.102,0.0871,0.0948,
江戸川 (Edogawa),2013-04-03,00:01～01:00,0.103,0.0928,0.0982,
江戸川 (Edogawa),2013-04-02,23:01～24:00,0.108,0.0939,0.0999,
江戸川 (Edogawa),2013-04-02,22:01～23:00,0.111,0.0955,0.103,
江戸川 (Edogawa),2013-04-02,21:01～22:00,0.111,0.0952,0.103,
江戸川 (Edogawa),2013-04-02,20:01～21:00,0.107,0.0921,0.0992,
江戸川 (Edogawa),2013-04-02,19:01～20:00,0.103,0.0931,0.0991,
江戸川 (Edogawa),2013-04-02,18:01～19:00,0.104,0.0931,0.0981,
江戸川 (Edogawa),2013-04-02,17:01～18:00,0.102,0.0901,0.0960,
江戸川 (Edogawa),2013-04-02,16:01～17:00,0.101,0.0881,0.0948,
江戸川 (Edogawa),2013-04-02,15:01～16:00,0.101,0.0853,0.0945,
江戸川 (Edogawa),2013-04-02,14:01～15:00,0.101,0.0844,0.0948,
江戸川 (Edogawa),2013-04-02,13:01～14:00,0.0998,0.0905,0.0953,
江戸川 (Edogawa),2013-04-02,12:01～13:00,0.103,0.0925,0.0974,
江戸川 (Edogawa),2013-04-02,11:01～12:00,0.107,0.0929,0.0990,
江戸川 (Edogawa),2013-04-02,10:01～11:00,0.105,0.0912,0.0994,
江戸川 (Edogawa),2013-04-02,09:01～10:00,0.107,0.0945,0.101,
江戸川 (Edogawa),2013-04-02,08:01～09:00,0.112,0.0958,0.104,
江戸川 (Edogawa),2013-04-02,07:01～08:00,0.109,0.0957,0.103,
江戸川 (Edogawa),2013-04-02,06:01～07:00,0.106,0.0937,0.101,
江戸川 (Edogawa),2013-04-02,05:01～06:00,0.107,0.0941,0.0998,
江戸川 (Edogawa),2013-04-02,04:01～05:00,0.101,0.0869,0.0954,
江戸川 (Edogawa),2013-04-02,03:01～04:00,0.102,0.0886,0.0936,
江戸川 (Edogawa),2013-04-02,02:01～03:00,0.100,0.0888,0.0943,
江戸川 (Edogawa),2013-04-02,01:01～02:00,0.100,0.0902,0.0949,
江戸川 (Edogawa),2013-04-02,00:01～01:00,0.101,0.0894,0.0949,
江戸川 (Edogawa),2013-04-01,23:01～24:00,0.102,0.0880,0.0939,
江戸川 (Edogawa),2013-04-01,22:01～23:00,0.0993,0.0894,0.0936,
江戸川 (Edogawa),2013-04-01,21:01～22:00,0.0997,0.0876,0.0931,
江戸川 (Edogawa),2013-04-01,20:01～21:00,0.0978,0.0873,0.0928,
江戸川 (Edogawa),2013-04-01,19:01～20:00,0.0986,0.0872,0.0929,
江戸川 (Edogawa),2013-04-01,18:01～19:00,0.0988,0.0864,0.0931,
江戸川 (Edogawa),2013-04-01,17:01～18:00,0.0974,0.0872,0.0929,
江戸川 (Edogawa),2013-04-01,16:01～17:00,0.0984,0.0880,0.0928,
江戸川 (Edogawa),2013-04-01,15:01～16:00,0.0992,0.0878,0.0931,
江戸川 (Edogawa),2013-04-01,14:01～15:00,0.100,0.0843,0.0933,
江戸川 (Edogawa),2013-04-01,13:01～14:00,0.100,0.0879,0.0934,
江戸川 (Edogawa),2013-04-01,12:01～13:00,0.101,0.0881,0.0940,
江戸川 (Edogawa),2013-04-01,11:01～12:00,0.101,0.0884,0.0936,
江戸川 (Edogawa),2013-04-01,10:01～11:00,0.0997,0.0878,0.0939,
江戸川 (Edogawa),2013-04-01,09:01～10:00,0.0989,0.0880,0.0928,
江戸川 (Edogawa),2013-04-01,08:01～09:00,0.0966,0.0850,0.0921,
江戸川 (Edogawa),2013-04-01,07:01～08:00,0.0992,0.0876,0.0923,
江戸川 (Edogawa),2013-04-01,06:01～07:00,0.101,0.0860,0.0918,
江戸川 (Edogawa),2013-04-01,05:01～06:00,0.0966,0.0842,0.0918,
江戸川 (Edogawa),2013-04-01,04:01～05:00,0.0980,0.0876,0.0918,
江戸川 (Edogawa),2013-04-01,03:01～04:00,0.0990,0.0868,0.0916,
江戸川 (Edogawa),2013-04-01,02:01～03:00,0.0964,0.0842,0.0919,
江戸川 (Edogawa),2013-04-01,01:01～02:00,0.0994,0.0842,0.0923,
江戸川 (Edogawa),2013-04-01,00:01～01:00,0.0979,0.0878,0.0922,
